Location: Newark
(44.2003°N, 3.2583°E)
Time: 00:26:35
(UTC+00:00)

Explorer 7 - Pass Details

Date: 18 October 2019
Orbit: 485 x 680 km, 50.3° (Epoch: 11 November)

Event Time Altitude Azimuth Distance (km) Brightness Sun altitude
Rises 18:11:09 0° 293° (WNW) 2,645 11.6 -13.7°
Reaches altitude 10° 18:13:28 10° 283° (WNW) 1,783 10.7 -14.1°
Maximum altitude 18:17:05 32° 220° (SW) 962 8.4 -14.8°
Drops below altitude 10° 18:20:54 10° 157° (SSE) 1,880 9.3 -15.5°
Enters shadow 18:21:40 - 153° (SSE) 2,159 9.6 -15.6°
